Location: Ankenberg
(46.9517°N, 8.4640°E)
Time: 19:37:29
(UTC+00:00)

Daily predictions for brighter satellites

Satellite Brightness Start Highest point End
(mag) Time Altitude Azimuth Time Altitude Azimuth Time Altitude Azimuth
MOS 1 Rocket 3.9 17:44:00 10° N 17:49:12 74° WNW 17:54:33 10° SSW
Gbstr 26 Del rocket 3.8 17:45:50 10° WNW 17:50:04 48° N 17:55:12 10° E
Cosmos 2333 Rocket 2.6 17:47:58 10° S 17:53:14 41° ESE 17:58:35 10° NE
Abrixas rocket 1.4 17:51:35 10° WNW 17:54:03 86° N 17:56:31 10° ESE
Cosmos 1295 Rocket 4.5 17:48:48 10° S 17:55:01 79° E 18:01:12 10° N
Meteor 2-4 Rocket 3.8 17:52:40 10° N 17:58:35 77° ENE 18:04:31 10° SSE
Cosmos 2322 Rocket 3.2 17:53:57 10° SW 17:59:23 51° WNW 18:04:54 10° NNE
Helios 1A Rocket 3.3 17:56:02 10° SE 17:59:49 40° ENE 18:03:37 10° N
Lacrosse 4 Rocket 1.9 17:56:19 10° S 18:00:30 44° ESE 18:04:47 10° NE
CZ-2D R/B 4.5 17:57:14 10° S 18:00:54 47° W 18:04:38 10° NNW
Nadezhda 3 Rocket 4.3 17:54:51 10° NNW 18:01:15 77° W 18:07:34 10° S
GP-B 3.4 17:57:28 10° SSE 18:01:41 45° E 18:05:56 10° N
ARGOS 3.2 17:58:38 10° SSE 18:03:58 63° ENE 18:09:21 10° N
Cosmos 192 4.5 18:02:17 10° S 18:07:02 52° ESE 18:11:49 10° NNE
Cosmos 1869 Rocket 4.0 18:04:08 10° SSE 18:08:10 37° E 18:12:15 10° NNE
CZ-4 R/B 1.5 18:05:30 10° S 18:09:22 77° WSW 18:13:21 10° NNW
Cosmos 2219 Rocket 2.4 18:04:21 10° S 18:09:42 48° ESE 18:15:05 10° NE
CZ-4B R/B 2.5 18:07:30 10° N 18:10:26 44° WNW 18:13:26 10° SW
Cosmos 2154 Rocket 4.5 18:06:13 10° SSW 18:12:23 67° WNW 18:18:35 10° N
FALCON 9 DEB 3.1 18:11:17 10° NW 18:14:25 56° NNE 18:16:47 16° E
ERS-2 2.2 18:11:26 10° NNE 18:15:03 56° ESE 18:18:38 10° S
CZ-2C R/B 2.8 18:10:10 10° NNE 18:15:26 48° E 18:20:33 10° S
Cosmos 1238 Rocket 3.8 18:13:12 10° SE 18:16:22 22° E 18:19:10 10° NE
Cosmos 1689 Rocket 1.9 18:13:45 10° NNE 18:16:38 62° ESE 18:19:29 10° S
Cosmos 1378 3.9 18:15:28 10° N 18:18:49 31° ENE 18:22:10 10° SE
SL-08 RB Rocket 3.8 18:14:27 10° SSE 18:18:53 58° ENE 18:23:25 10° N
USA 305 3.7 18:15:29 10° NW 18:19:32 39° NNE 18:22:40 15° E
NOSS 3-2 (A) 3.9 18:17:15 10° S 18:22:14 35° ESE 18:27:50 10° NE
CREW DRAGON DEMO-1 DEB 3.1 18:19:46 10° SW 18:22:27 41° SSE 18:23:59 21° E
HJ-1C 3.3 18:20:11 10° SSE 18:23:29 89° ENE 18:26:48 10° NNW
FALCON 9 DEB 3.1 18:20:43 10° NW 18:23:53 57° NNE 18:25:51 20° E
COSMOS 2428 2.8 18:18:55 10° S 18:24:25 53° ESE 18:29:57 10° NE
Cosmos 1733 Rocket 4.3 18:22:28 10° SE 18:25:38 20° E 18:28:47 10° NE
SL-16 R/B 4.2 18:23:10 10° WSW 18:28:00 28° NW 18:32:53 10° N
USA 307 3.6 18:29:14 10° NW 18:33:20 42° NNE 18:35:52 20° E
SL-8 Rocket 3.9 18:27:17 10° S 18:33:29 76° E 18:39:41 10° NNE
CENTAUR R/B 3.2 18:29:05 10° S 18:34:01 29° ESE 18:39:40 10° NE
USA 306 3.5 18:30:30 10° NW 18:34:38 43° NNE 18:37:06 21° E
NOSS 0 Rocket 4.4 18:30:21 10° S 18:35:52 36° ESE 18:41:23 10° NE
ATLAS CENTAUR R/B 3.3 18:32:57 10° W 18:35:58 24° NW 18:39:02 10° NNE
Cosmos 1066 Rocket 4.3 18:31:33 10° N 18:37:18 63° ENE 18:43:05 10° SSE
Cosmos 1743 3.6 18:36:49 10° SSE 18:40:09 28° E 18:43:29 10° NNE
Cosmos 1666 3.2 18:38:13 10° SSW 18:41:54 61° WNW 18:45:38 10° N
USA 308 3.4 18:40:04 10° NW 18:44:12 46° NNE 18:46:15 26° E
CSL-04 Rocket 3.9 18:39:25 10° SSE 18:44:58 78° WSW 18:50:29 10° NNW
Cosmos 2322 3.9 18:39:38 10° SSW 18:45:21 75° WNW 18:51:07 10° NNE
Meteor 1-23 Rocket 4.2 18:42:10 10° N 18:47:43 59° ENE 18:53:18 10° SSE
Okean-O 4.1 18:44:06 10° SSW 18:48:15 39° W 18:52:26 10° NNW
BREEZE-M DEB (TANK) 3.0 18:47:33 10° SW 18:49:49 43° SSE 18:50:06 41° SE
Cosmos 2366 rocket 4.0 18:45:24 10° S 18:51:44 84° E 18:58:08 10° N
ASTEX 1 3.5 18:47:02 10° NNE 18:51:48 51° E 18:56:32 10° SSE
H-2A R/B 3.7 18:47:18 10° SSW 18:52:21 38° W 18:57:25 10° NNW
Cosmos 1674 Rocket 4.3 18:51:10 10° N 18:55:01 30° ENE 18:55:15 30° E
SJ-6B 2.9 18:52:44 22° SE 18:55:06 55° ENE 18:59:02 10° N
Cosmos 990 Rocket 4.3 18:52:43 10° N 18:57:42 44° ENE 18:59:41 30° ESE
Ariane Rocket 3.2 18:55:34 22° SE 18:58:41 51° ENE 19:03:38 10° N
Cosmos 2221 Rocket 3.5 18:54:43 10° N 18:59:08 63° ENE 19:02:10 20° SSE
USA 186 1.1 18:59:36 76° N 18:59:36 76° N 19:02:05 10° NNW
Cosmos 1763 Rocket 4.1 18:57:11 10° SSE 19:01:52 33° E 19:06:35 10° NE
OBJECT-B 0.9 19:02:09 52° ENE 19:02:09 52° ENE 19:05:13 10° N
NOSS 3-2 (C) 3.7 18:58:44 10° S 19:03:54 40° ESE 19:08:11 17° NE
Meteor 1-11 Rocket 3.9 19:00:05 10° SSW 19:05:45 76° WNW 19:11:21 10° N
Cosmos 1378 Rocket 4.2 19:05:25 10° N 19:09:21 36° ENE 19:09:21 36° ENE
Cosmos 2360 Rocket 4.2 19:05:16 10° WSW 19:10:07 29° NW 19:15:01 10° N
Cosmos 468 Rocket 4.3 19:08:31 10° S 19:13:30 43° ESE 19:18:28 10° NE
FALCON 9 DEB 3.2 19:10:32 10° WNW 19:13:41 59° SW 19:13:45 59° SSW
Cosmos 1943 Rocket 3.6 19:10:29 10° N 19:14:49 22° NE 19:15:25 21° NE
Cosmos 1821 Rocket 3.9 19:09:55 10° S 19:15:59 58° E 19:22:00 10° NNE
Cosmos 2237 Rocket 2.2 19:11:18 10° S 19:16:49 53° ESE 19:22:22 10° NE
SJ 16-02 1.5 19:12:24 10° NNW 19:16:49 72° WSW 19:19:19 25° S
Cosmos 1727 Rocket 4.0 19:10:54 10° N 19:17:07 84° W 19:23:20 10° S
DMSP B5D2-2 4.1 19:12:35 10° NNE 19:17:50 78° WNW 19:23:01 10° SSW
Cosmos 1544 2.9 19:14:13 10° S 19:17:51 84° E 19:21:33 10° N
Cosmos 2278 Rocket 2.1 19:13:24 10° NNW 19:19:07 89° WSW 19:22:11 29° SSE
MOS 1 4.2 19:15:42 22° SSE 19:19:32 77° ENE 19:25:14 10° NNW
Cosmos 1536 3.7 19:16:25 10° SSW 19:20:18 49° WNW 19:24:11 10° N
FALCON 9 DEB 3.8 19:18:28 10° WNW 19:21:22 44° SW 19:21:22 44° SW
USA 81 3.9 19:16:34 10° S 19:21:45 65° E 19:26:59 10° N
Cosmos 1000 Rocket 4.5 19:15:32 10° N 19:21:49 65° E 19:25:17 28° SSE
SL-4 R/B 3.6 19:19:25 10° W 19:22:01 20° SW 19:22:57 18° SSW
SeaSat 1 2.6 19:19:33 10° NNE 19:24:30 75° WNW 19:29:26 10° SW
SPOT 3 Rocket 3.8 19:24:25 44° E 19:24:50 45° ENE 19:29:48 10° N
Cosmos 2239 Rocket 4.5 19:19:33 10° S 19:25:41 58° E 19:31:48 10° NNE
Abrixas rocket 4.4 19:25:54 10° W 19:26:46 15° WSW 19:26:46 15° WSW
Cosmos 1934 Rocket 4.2 19:30:06 42° E 19:30:06 42° E 19:35:38 10° NNE
Resurs 01 Rocket 2.3 19:31:41 40° NE 19:31:41 40° NE 19:35:03 10° N
SME Rocket 3.9 19:25:03 10° NNE 19:32:27 87° WNW 19:37:18 10° SSW
Meteor 2-20 Rocket 4.3 19:27:06 10° N 19:33:15 88° E 19:37:10 24° S
USA 234 3.3 19:33:09 39° E 19:35:24 55° SE 19:41:48 10° SSW
Gbstr 26 Del rocket 3.4 19:32:31 10° WNW 19:37:21 90° ENE 19:38:19 62° ESE
Cosmos 2333 Rocket 3.7 19:32:19 10° WSW 19:37:34 37° NW 19:42:53 10° NNE
Lacrosse 4 Rocket 3.6 19:35:34 10° WSW 19:39:22 27° NW 19:43:14 10° NNE
Cosmos 1937 Rocket 3.5 19:34:43 10° NNW 19:39:49 59° ENE 19:39:49 59° ENE
Cosmos 2123 Rocket 4.0 19:34:10 10° N 19:40:19 56° ENE 19:41:01 53° ESE
USA 238 DEB 3.6 19:37:10 10° SW 19:43:44 87° NW 19:50:41 10° NE
USA 238 3.6 19:37:16 10° SW 19:43:51 88° NW 19:50:48 10° NE
Resurs 1-3 3.6 19:45:27 77° SW 19:45:37 79° WSW 19:50:02 10° NNW
DELTA 2 R/B (1) 4.2 19:41:37 10° WSW 19:46:36 39° S 19:46:36 39° S
Cosmos 2219 Rocket 3.9 19:48:54 10° WSW 19:53:51 32° NW 19:58:52 10° NNE
Terra 4.2 20:00:53 12° NNE 20:00:53 12° NNE 20:01:24 10° NNE
USA 305 3.7 19:55:29 10° WNW 19:58:46 50° W 19:58:46 50° W
Cosmos 1980 3.9 19:55:57 10° SW 20:01:34 70° WNW 20:07:14 10° NNE
Cosmos 1733 Rocket 4.2 19:59:00 10° SSW 20:03:07 41° WNW 20:07:17 10° N
COSMOS 2428 4.5 20:04:01 10° WSW 20:08:59 30° NW 20:13:59 10° NNE
Meteor 2-9 Rocket 4.4 20:10:29 56° N 20:10:29 56° N 20:14:40 10° N
NOSS 3-2 (A) 4.1 20:07:11 10° WSW 20:12:46 52° NW 20:19:17 10° NE
USA 307 4.3 20:09:17 10° WNW 20:12:00 36° W 20:12:00 36° W
USA 306 4.4 20:10:33 10° WNW 20:13:13 35° W 20:13:13 35° W
Cosmos 1898 Rocket 4.2 20:14:17 10° NNW 20:19:18 48° WSW 20:19:30 48° WSW
Cosmos 2369 Rocket 3.5 20:14:32 10° NNW 20:18:00 28° NNE 20:18:00 28° NNE
CENTAUR R/B 2.9 20:18:07 10° SW 20:24:04 64° NW 20:31:16 10° NE
USA 281 4.5 20:54:08 30° NNE 20:54:08 30° NNE 20:58:17 10° NNW
NOSS 3-2 (C) 4.3 20:49:07 10° WSW 20:54:41 47° NW 20:55:55 42° N
Cosmos 1943 Rocket 3.4 20:53:34 10° NNW 20:56:58 38° NNW 20:56:58 38° NNW
Cosmos 2237 Rocket 3.9 20:56:12 10° WSW 21:01:10 30° NW 21:06:10 10° NNE
Resurs 01 Rocket 4.3 21:09:14 16° WNW 21:09:14 16° WNW 21:10:49 10° NW
USA 234 4.1 21:20:31 42° W 21:20:31 42° W 21:24:52 10° WSW
CENTAUR R/B 4.5 22:10:49 10° WNW 22:16:18 26° NNW 22:22:34 10° NE
